Retour au catalogue

THOR ABLESTAR DEB

ActifLEO
NORAD 420·DEBRIS·🇺🇸 United States

Lancé Jun 29, 1961 depuis Cape Canaveral Space Force Station

Loading…

Prochains Passages (prochaines 24 heures)

TLE

FraisSource: Space-Track

Époque: Sep 6, 2026, 20:44 UTC

1 00420U 61015EV  26249.86411687  .00000557  00000-0  22074-3 0  9998
2 00420  66.8121  62.8329 0079986 151.5545 208.9958 14.34189698365296

Suivez THOR ABLESTAR DEB en temps réel avec AllMySat

Download on the App Store